Location: Sternwarte_Laufen
(47.9344°N, 12.9346°E)
Time: 04:25:35
(UTC+02:00)

ISS - Pass Details

Date: 11 July 2025
Orbit: 413 x 417 km, 51.6° (Epoch: 12 July)

Event Time Altitude Azimuth Distance (km) Brightness Sun altitude
Rises 00:23:13 0° 279° (W) 2,354 0.3 -19.0°
Reaches altitude 10° 00:25:23 10° 287° (WNW) 1,492 -0.6 -19.1°
Maximum altitude 00:28:35 42° 360° (N) 611 -2.5 -19.2°
Drops below altitude 10° 00:31:47 10° 73° (ENE) 1,494 -0.9 -19.3°
Sets 00:33:58 0° 80° (E) 2,358 0.1 -19.4°
